カタログに戻る

COSMOS 1030 DEB

LostHEO
NORAD 27892·DEBRIS·🇷🇺 Russia

打ち上げ Sep 6, 1978 から Plesetsk Cosmodrome

Loading…

次のパス (今後24時間)

TLE

古いSource: Space-Track

元期: Nov 3, 2024, 10:42 UTC

1 27892U 78083K   24308.44585986  .00000364  00000-0  00000+0 0  9992
2 27892  69.8507  78.0362 5838977   5.0828 358.7549  2.00732906162774

AllMySatでCOSMOS 1030 DEBをリアルタイム追跡

Download on the App Store